Regional Weather Roundup
Issued by NWS Albany, NY

Current Version | Previous Version | Text Only | Print | Product List | Glossary On
Versions: 1 2 3 4 5 6 7 8 9 10 11 12 13 14 15 16 17 18 19 20 21 22 23 24 25 26 27 28 29 30 31 32 33 34 35 36 37 38 39 40 41 42 43 44 45 46 47 48 49 50
000
ASUS41 KALY 250210
RWRALY

NEW YORK STATE HOURLY WEATHER ROUNDUP
NATIONAL WEATHER SERVICE ALBANY NY
1000 PM EDT SAT OCT 24 2020

NOTE: "FAIR" INDICATES FEW OR NO CLOUDS BELOW 12,000 FEET WITH NO
SIGNIFICANT WEATHER AND/OR NO OBSTRUCTIONS TO VISIBILITY.

NYZ032-033-038>043-046>054-057>066-NYZ062>081-082-084-250300-
EAST


CITY           SKY/WX    TMP DP  RH WIND       PRES   REMARKS
ALBANY         CLOUDY    43  34  70 W13       30.12R
GLENS FALLS    CLOUDY    44  31  60 N9        30.11R
POUGHKEEPSIE   PTCLDY    47  36  65 CALM      30.07R
NEWBURGH       CLEAR     46  36  66 NE12      30.07R
MONTGOMERY     PTCLDY    45  34  65 NW8       30.07R
WHITE PLAINS   PTCLDY    49  37  63 N8        30.03R
ISLIP          MOCLDY    54  43  66 N13       30.01R
NEW YORK CITY  MOCLDY    56  38  50 N15G23    30.03R
CENTRAL PARK   PTCLDY    53  37  54 NW9       30.07R
$$

NYZ005>009-017-018-044>046-055-056-250300-
CENTRAL


CITY           SKY/WX    TMP DP  RH WIND       PRES   REMARKS
FULTON         LGT RAIN  43  38  82 SE3       30.16R
SYRACUSE       DRIZZLE   45  36  70 W10       30.16R
ROME           PTCLDY    40  33  76 NW5       30.17R
ELMIRA         CLOUDY    44  33  65 N7        30.16S
BINGHAMTON     PTCLDY    37  32  82 NW7       30.12S WCI  32
MONTICELLO     MOCLDY    39  32  76 NW10      30.10R WCI  32
$$

NYZ026>034-041>043-087-250300-
NORTH


CITY           SKY/WX    TMP DP  RH WIND       PRES   REMARKS
WATERTOWN      CLOUDY    42  32  67 E5        30.18S
FORT DRUM      NOT AVBL
OGDENSBURG     CLOUDY    41  30  65 N7        30.17R
MASSENA        CLOUDY    40  26  57 N7        30.19S
SARANAC LAKE   CLOUDY    36  28  73 CALM      30.10S
PLATTSBURGH    MOCLDY    43  30  60 NW9       30.14R
$$

NYZ001>004-010>016-019>021-085-250300-
WEST


CITY           SKY/WX    TMP DP  RH WIND       PRES   REMARKS
NIAGARA FALLS  CLOUDY    40  34  79 CALM      30.20R
BUFFALO        MOCLDY    40  33  76 CALM      30.19S
DUNKIRK        CLOUDY    44  35  70 E3        30.20R
JAMESTOWN      CLOUDY    38  33  82 CALM      30.17S
WELLSVILLE     CLOUDY    37  30  75 N5        30.15S WCI  33
ROCHESTER      CLOUDY    43  34  70 W6        30.19R
PENN YAN       CLOUDY    42  31  64 VRB6      30.18S
$$

             KEY
       WCI = WIND CHILL INDEX
       VSB = VISIBILITY
       HX  = HEAT INDEX
$$




USA.gov is the U.S. government's official web portal to all federal, state and local government web resources and services.